Regional Weather Roundup
Issued by NWS

Home | Current Version | Previous Version | Graphics & Text | Print | Product List | Glossary On
Versions: 1 2 3 4 5 6 7 8 9 10 11 12 13 14 15 16 17 18 19 20 21 22 23 24 25 26 27 28 29 30 31 32 33 34 35 36 37 38 39 40 41 42 43 44 45 46 47 48 49 50
000
ASUS43 KOAX 252010
RWRNE

WEATHER ROUNDUP FOR NEBRASKA
NATIONAL WEATHER SERVICE OMAHA NE
300 PM CDT SUN JUN 25 2017

NOTES: SATELLITE DATA IS BEING USED TO AUGMENT CLOUD COVER ABOVE
       12000 FEET.
       "FAIR" INDICATES FEW OR NO CLOUDS BELOW 12,000 FEET WITH NO
       SIGNIFICANT WEATHER AND/OR OBSTRUCTIONS TO VISIBILITY.

  * THESE STATIONS DO NOT REPORT WEATHER SUCH AS RAIN...SNOW OR FOG.

NEZ001>004-019>022-054>056-252100-
NEBRASKA PANHANDLE

CITY           SKY/WX    TMP DP  RH WIND       PRES   REMARKS
SCOTTSBLUFF    SUNNY     77  43  29 SE8G20    30.29F
ALLIANCE       SUNNY     76  38  25 S9        30.28F
CHADRON        MOSUNNY   76  39  26 SW3       30.25F
GORDON         FAIR      75  39  27 NW10      30.27F
KIMBALL        MOSUNNY   69  50  50 SE5G20    30.34F
SIDNEY         SUNNY     72  44  36 S13G20    30.34F
$$

NEZ057>060-069>072-079>082-252100-
SOUTHWEST NEBRASKA

CITY           SKY/WX    TMP DP  RH WIND       PRES   REMARKS
NORTH PLATTE   SUNNY     76  45  33 SE8       30.29F
IMPERIAL       PTSUNNY   67  46  47 S12       30.33S
LEXINGTON      SUNNY     74  40  28 S13       30.31F
MCCOOK         PTSUNNY   70  45  40 SE9       30.33R
OGALLALA       SUNNY     78  41  27 S9        30.30F
$$

NEZ005>010-023>029-035>040-094-252100-
NORTH CENTRAL NEBRASKA

CITY           SKY/WX    TMP DP  RH WIND       PRES   REMARKS
VALENTINE      MOSUNNY   77  29  17 E3        30.27F
AINSWORTH      SUNNY     73  37  26 W7        30.29F
BROKEN BOW     SUNNY     75  39  27 CALM      30.29F
O`NEILL        SUNNY     73  36  25 W5        30.29F
ORD            SUNNY     76  29  17 VRB3      30.27F
THEDFORD       SUNNY     76  37  23 SW6       30.29F
$$

NEZ041-046>049-061>064-073>077-083>087-252100-
SOUTH CENTRAL NEBRASKA

CITY           SKY/WX    TMP DP  RH WIND       PRES   REMARKS
GRAND ISLAND   SUNNY     75  38  26 CALM      30.30F
AURORA         SUNNY     73  38  28 CALM      30.30F
HASTINGS       SUNNY     73  38  27 NW3       30.31F
HEBRON         PTSUNNY   73  41  31 S3        30.31F
HOLDREGE       SUNNY     70  40  34 SE9       30.32F
KEARNEY *      SUNNY     73  37  27 SE6       30.32F
YORK           SUNNY     73  39  29 CALM      30.29F
$$

NEZ011>018-030>034-042>045-252100-
NORTHEAST NEBRASKA

CITY           SKY/WX    TMP DP  RH WIND       PRES   REMARKS
NORFOLK        SUNNY     73  41  31 VRB6      30.27F
ALBION         SUNNY     74  32  21 N6        30.29F
BLAIR          SUNNY     72  42  33 N9        30.27F
FREMONT        SUNNY     73  40  29 N7        30.28F
TEKAMAH        SUNNY     76  38  25 N12G23    30.25F
WAYNE          SUNNY     73  40  29 N13G18    30.27F
$$

NEZ050>053-065>068-078-088>093-252100-
SOUTHEAST NEBRASKA

CITY           SKY/WX    TMP DP  RH WIND       PRES   REMARKS
LINCOLN        SUNNY     77  40  26 NW12G17   30.28F
OMAHA EPPLEY   MOSUNNY   75  42  30 N12       30.26F
BEATRICE       CLOUDY    75  47  37 SW6       30.29F
FALLS CITY     PTSUNNY   73  48  41 NW8       30.27F
NEBRASKA CITY  MOSUNNY   73  46  38 NW8       30.28F
PLATTSMOUTH    SUNNY     72  42  33 NW12      30.28F
$$

NEZ044-045-051>053-067-252100-
OMAHA AREA

CITY           SKY/WX    TMP DP  RH WIND       PRES   REMARKS
OMAHA EPPLEY   MOSUNNY   75  42  30 N12       30.26F
BLAIR          SUNNY     72  42  33 N9        30.27F
FREMONT        SUNNY     73  40  29 N7        30.28F
MILLARD        SUNNY     74  45  35 NW5       30.27F
OFFUTT AFB     SUNNY     73  44  35 W9G16     30.26F
PLATTSMOUTH    SUNNY     72  42  33 NW12      30.28F
WAHOO          FAIR      74  37  25 W6        30.27F
$$




USA.gov is the U.S. government's official web portal to all federal, state and local government web resources and services.